�N����,����,�~����,�C��,���x,�C��,����,���ϕ���,�ő�u�ԕ���,�ő厞����,���˗�,�I�_���x,�n�����x,�ő啗���N��,DTYPE
"19/04/11","00:10",0.0,9.3,92.9,1000.3,297.5,1.7,2.6,322.5,0.00,8.3,10.7,"00:05:26",1
"19/04/11","00:20",0.0,9.0,93.0,1000.5,294.2,1.5,2.0,316.0,0.00,8.0,10.6,"00:10:02",1
"19/04/11","00:30",0.0,8.6,93.1,1001.0,311.9,1.7,2.4,326.0,0.00,7.6,10.5,"00:20:40",1
"19/04/11","00:40",0.0,8.6,93.7,1001.0,310.3,1.7,4.0,322.9,0.00,7.7,10.6,"00:37:04",1
"19/04/11","00:50",0.0,8.7,93.7,1000.8,286.0,1.1,1.9,313.0,0.00,7.8,10.8,"00:47:36",1
"19/04/11","01:00",0.0,8.8,93.4,1000.8,309.0,1.3,2.7,329.9,0.00,7.8,10.7,"00:54:56",1
"19/04/11","01:10",0.0,8.8,92.9,1000.8,328.7,1.8,4.2,303.7,0.00,7.8,10.3,"01:02:00",1
"19/04/11","01:20",0.0,8.9,91.8,1000.8,298.5,2.5,5.0,314.0,0.00,7.7,10.6,"01:16:16",1
"19/04/11","01:30",0.0,9.0,90.4,1001.2,320.8,2.8,5.6,330.5,0.00,7.6,10.6,"01:25:04",1
"19/04/11","01:40",0.0,9.2,89.3,1001.2,315.2,2.7,4.7,335.5,0.00,7.6,10.7,"01:39:44",1
"19/04/11","01:50",0.0,9.1,88.7,1001.0,305.7,2.7,4.7,320.6,0.00,7.4,10.7,"01:48:56",1
"19/04/11","02:00",0.0,9.0,88.0,1001.0,312.9,2.7,5.6,322.6,0.00,7.2,10.5,"01:53:36",1
"19/04/11","02:10",0.0,9.0,87.2,1001.5,308.8,2.7,5.9,317.3,0.00,7.0,10.5,"02:08:08",1
"19/04/11","02:20",0.0,8.9,86.2,1001.5,319.6,2.8,5.7,293.5,0.00,6.8,10.5,"02:10:48",1
"19/04/11","02:30",0.0,8.8,85.8,1001.2,301.1,2.3,3.5,302.8,0.00,6.6,10.6,"02:26:48",1
"19/04/11","02:40",0.0,8.9,85.2,1001.0,320.1,2.7,4.9,331.1,0.00,6.6,10.7,"02:33:44",1
"19/04/11","02:50",0.0,8.8,84.9,1001.0,342.7,1.6,3.7,314.1,0.00,6.4,10.5,"02:45:04",1
"19/04/11","03:00",0.0,8.8,84.6,1001.5,323.5,2.5,4.5,319.5,0.00,6.4,10.3,"02:58:08",1
"19/04/11","03:10",0.0,8.7,84.7,1001.2,308.3,2.6,4.8,291.9,0.00,6.3,10.4,"03:00:48",1
"19/04/11","03:20",0.0,8.4,85.1,1001.5,302.7,1.6,4.4,312.1,0.00,6.1,10.5,"03:10:48",1
"19/04/11","03:30",0.0,8.2,85.7,1001.5,313.3,1.8,5.0,335.0,0.00,6.0,10.6,"03:28:48",1
"19/04/11","03:40",0.0,8.2,85.8,1001.9,303.6,2.0,4.0,305.0,0.00,6.0,10.6,"03:33:52",1
"19/04/11","03:50",0.0,8.3,85.7,1001.7,346.9,2.0,3.6,331.3,0.00,6.1,10.4,"03:45:04",1
"19/04/11","04:00",0.0,8.3,85.5,1002.2,338.9,1.1,2.8,338.1,0.00,6.1,10.4,"03:50:56",1
"19/04/11","04:10",0.0,8.0,86.1,1001.9,326.2,1.1,3.2,327.1,0.00,5.9,10.4,"04:03:44",1
"19/04/11","04:20",0.0,7.9,86.6,1002.4,290.6,1.2,2.4,334.5,0.00,5.8,10.3,"04:11:28",1
"19/04/11","04:30",0.0,7.7,86.6,1002.2,321.0,1.7,3.5,304.4,0.00,5.6,10.3,"04:20:02",1
"19/04/11","04:40",0.0,7.7,86.4,1002.2,340.1,2.3,5.7,343.8,0.00,5.6,10.5,"04:34:18",1
"19/04/11","04:50",0.0,7.8,85.7,1002.2,350.7,2.1,4.7,348.4,0.00,5.6,10.5,"04:42:24",1
"19/04/11","05:00",0.0,7.8,85.2,1002.6,312.9,2.0,3.6,315.0,0.00,5.5,10.2,"04:56:24",1
"19/04/11","05:10",0.0,7.7,85.2,1003.1,316.0,1.2,2.1,291.6,0.00,5.4,10.3,"05:00:16",1
"19/04/11","05:20",0.0,7.6,85.8,1002.9,291.3,1.1,1.6,320.8,0.00,5.4,10.2,"05:16:22",1
"19/04/11","05:30",0.0,7.4,86.8,1002.9,264.8,1.2,1.9,250.4,0.00,5.4,10.3,"05:24:58",1
"19/04/11","05:40",0.0,7.5,87.0,1002.9,261.9,1.5,2.0,253.5,0.00,5.5,10.2,"05:36:38",1
"19/04/11","05:50",0.0,7.6,87.3,1002.9,282.8,1.5,2.5,331.0,0.00,5.7,10.3,"05:49:50",1
"19/04/11","06:00",0.2,7.3,87.8,1003.1,320.9,1.2,2.1,332.2,0.00,5.5,10.2,"05:50:10",1
"19/04/11","06:10",0.0,7.0,89.0,1003.4,312.0,1.8,2.2,320.4,0.00,5.4,10.3,"06:04:44",1
"19/04/11","06:20",0.0,6.9,90.1,1003.8,320.9,2.6,4.0,336.5,0.00,5.4,10.1,"06:14:54",1
"19/04/11","06:30",0.0,6.8,91.1,1003.6,302.3,2.0,2.9,313.8,0.00,5.5,10.1,"06:22:18",1
"19/04/11","06:40",0.0,7.0,91.6,1004.1,328.6,1.7,2.2,298.0,0.00,5.8,10.0,"06:34:30",1
"19/04/11","06:50",0.2,6.9,91.7,1004.1,318.6,2.0,5.5,304.6,0.00,5.7,10.1,"06:46:44",1
"19/04/11","07:00",0.0,7.2,91.5,1004.3,335.6,1.5,2.0,303.4,0.02,6.0,10.1,"06:57:32",1
"19/04/11","07:10",0.0,7.7,91.3,1004.3,305.3,1.0,2.0,323.0,0.05,6.4,10.2,"07:00:18",1
"19/04/11","07:20",0.0,7.6,90.8,1004.1,274.6,1.0,1.4,292.3,0.06,6.2,10.2,"07:13:30",1
"19/04/11","07:30",0.0,8.1,90.0,1004.5,308.2,1.5,2.4,335.6,0.05,6.6,10.3,"07:27:22",1
"19/04/11","07:40",0.0,8.1,89.8,1005.2,307.3,1.3,2.4,329.0,0.04,6.6,10.3,"07:31:26",1
"19/04/11","07:50",0.0,8.4,89.1,1005.2,305.1,2.0,2.9,333.4,0.10,6.8,10.0,"07:42:56",1
"19/04/11","08:00",0.0,8.4,87.4,1005.5,308.5,1.6,2.8,306.8,0.11,6.5,10.4,"07:51:44",1
"19/04/11","08:10",0.0,9.4,85.4,1005.7,313.4,1.6,2.5,343.7,0.17,7.1,10.3,"08:08:40",1
"19/04/11","08:20",0.2,9.1,82.0,1006.2,311.7,2.3,5.2,340.1,0.09,6.2,10.4,"08:12:16",1
"19/04/11","08:30",0.2,9.1,85.5,1006.2,341.5,1.8,3.3,332.8,0.24,6.8,10.3,"08:28:56",1
"19/04/11","08:40",0.0,8.9,83.0,1006.4,323.7,2.1,3.9,333.5,0.22,6.2,10.5,"08:30:16",1
"19/04/11","08:50",0.0,8.7,83.8,1006.0,296.6,1.5,2.5,334.8,0.08,6.2,10.6,"08:40:24",1
"19/04/11","09:00",0.0,8.8,85.4,1006.0,265.2,1.6,3.3,240.6,0.08,6.5,10.7,"08:55:44",1
"19/04/11","09:10",0.2,8.4,87.0,1006.4,315.4,3.0,5.8,335.3,0.15,6.4,10.6,"09:06:32",1
"19/04/11","09:20",0.0,8.5,88.7,1006.4,321.0,3.2,5.4,333.5,0.19,6.8,10.5,"09:18:40",1
"19/04/11","09:30",0.0,9.2,90.1,1006.2,304.0,2.8,4.7,319.7,0.40,7.7,10.8,"09:22:56",1
"19/04/11","09:40",0.0,9.2,89.1,1006.4,301.3,3.4,6.2,315.8,0.45,7.5,10.9,"09:33:36",1
"19/04/11","09:50",0.0,10.3,87.0,1006.7,295.0,2.2,4.1,253.0,0.46,8.3,11.0,"09:42:00",1
"19/04/11","10:00",0.0,9.9,84.3,1007.1,324.7,2.3,5.1,347.4,0.39,7.4,10.9,"09:58:40",1
"19/04/11","10:10",0.0,9.9,84.3,1007.1,296.8,2.5,4.4,336.1,0.33,7.4,11.0,"10:08:40",1
"19/04/11","10:20",0.0,10.4,83.4,1007.1,334.0,2.2,5.9,354.8,0.38,7.8,11.1,"10:18:24",1
"19/04/11","10:30",0.0,9.9,81.2,1007.4,342.8,3.5,6.8,339.5,0.29,6.9,11.2,"10:25:44",1
"19/04/11","10:40",0.0,9.3,82.4,1007.4,334.8,3.5,8.3,329.8,0.23,6.5,11.3,"10:36:24",1
"19/04/11","10:50",0.0,9.5,83.6,1007.1,329.5,3.4,6.5,335.0,0.25,6.9,11.2,"10:42:08",1
"19/04/11","11:00",0.0,9.3,83.3,1007.1,320.3,4.4,7.8,341.6,0.20,6.7,11.5,"10:58:16",1
"19/04/11","11:10",0.0,9.8,82.0,1006.9,323.2,3.7,7.8,329.3,0.24,6.9,11.3,"11:05:12",1
"19/04/11","11:20",0.0,9.6,81.0,1007.1,313.1,3.4,6.2,340.1,0.14,6.5,11.5,"11:16:16",1
"19/04/11","11:30",0.0,10.7,78.4,1007.1,309.6,3.2,5.4,331.4,0.43,7.1,11.6,"11:22:00",1
"19/04/11","11:40",0.0,10.5,75.9,1006.7,346.5,3.0,5.8,333.3,0.28,6.5,11.7,"11:35:04",1
"19/04/11","11:50",0.0,10.8,73.8,1007.1,343.2,3.1,7.4,350.6,0.45,6.4,11.7,"11:45:12",1
"19/04/11","12:00",0.0,11.1,69.7,1007.1,339.7,2.5,4.9,340.5,0.46,5.8,11.8,"11:51:20",1
"19/04/11","12:10",0.0,10.6,70.4,1007.4,345.1,2.8,5.8,22.5,0.18,5.5,11.8,"12:03:44",1
"19/04/11","12:20",0.0,11.5,66.3,1007.1,342.4,3.5,7.1,333.1,0.52,5.5,11.9,"12:12:00",1
"19/04/11","12:30",0.0,12.3,66.4,1007.1,341.0,2.1,7.9,342.5,0.54,6.3,12.1,"12:25:20",1
"19/04/11","12:40",0.0,11.9,62.8,1007.1,340.0,3.2,6.6,338.7,0.40,5.1,12.2,"12:39:44",1
"19/04/11","12:50",0.0,12.1,59.8,1007.1,341.1,3.5,7.7,327.8,0.59,4.6,12.2,"12:43:20",1
"19/04/11","13:00",0.0,11.1,60.1,1006.9,5.3,2.5,5.1,346.0,0.29,3.7,12.3,"12:50:56",1
"19/04/11","13:10",0.0,11.1,61.6,1007.4,359.2,3.1,5.4,354.6,0.24,4.0,12.3,"13:03:04",1
"19/04/11","13:20",0.0,12.1,60.1,1006.9,358.1,2.6,5.5,339.9,0.50,4.6,12.4,"13:17:44",1
"19/04/11","13:30",0.0,13.3,59.9,1006.7,340.4,1.8,6.2,359.9,0.58,5.7,12.6,"13:25:04",1
"19/04/11","13:40",0.0,11.9,58.9,1006.7,8.7,2.7,5.8,2.4,0.35,4.2,12.5,"13:33:52",1
"19/04/11","13:50",0.0,12.7,58.8,1006.9,353.8,2.2,5.0,343.5,0.38,4.9,12.7,"13:41:04",1
"19/04/11","14:00",0.0,11.6,57.2,1006.9,357.3,2.7,7.4,337.5,0.26,3.5,12.7,"13:53:12",1
"19/04/11","14:10",0.0,12.4,57.6,1006.9,5.8,2.2,5.5,23.8,0.33,4.3,12.8,"14:06:56",1
"19/04/11","14:20",0.0,12.2,55.8,1006.7,353.6,2.7,5.4,55.3,0.36,3.7,12.8,"14:19:52",1
"19/04/11","14:30",0.0,12.8,56.0,1006.4,5.8,2.8,7.1,15.2,0.44,4.3,12.7,"14:26:08",1
"19/04/11","14:40",0.0,13.0,54.6,1006.7,1.8,3.0,6.4,348.9,0.58,4.1,13.0,"14:38:16",1
"19/04/11","14:50",0.2,12.5,53.9,1006.7,359.0,3.2,6.6,341.9,0.54,3.5,13.0,"14:42:40",1
"19/04/11","15:00",0.0,12.8,53.5,1006.7,353.2,3.2,7.8,350.5,0.50,3.6,13.1,"14:50:32",1
"19/04/11","15:10",0.0,12.5,55.0,1006.4,356.2,3.0,6.6,345.0,0.41,3.8,13.1,"15:07:28",1
"19/04/11","15:20",0.0,11.9,55.3,1006.7,5.3,3.0,5.5,19.7,0.35,3.3,13.3,"15:15:20",1
"19/04/11","15:30",0.0,12.2,52.3,1006.4,345.3,4.1,9.5,326.4,0.38,2.8,13.3,"15:28:56",1
"19/04/11","15:40",0.0,12.5,53.6,1007.1,339.5,4.0,9.0,344.8,0.34,3.4,13.4,"15:38:32",1
"19/04/11","15:50",0.0,12.0,54.9,1006.7,344.3,3.5,6.6,346.7,0.25,3.3,13.5,"15:42:56",1
"19/04/11","16:00",0.0,11.6,55.8,1007.1,351.1,2.5,5.0,345.2,0.19,3.1,13.4,"15:59:52",1
"19/04/11","16:10",0.0,11.3,55.0,1006.4,345.1,3.5,10.6,328.2,0.17,2.6,13.3,"16:08:56",1
"19/04/11","16:20",0.0,11.4,55.6,1006.9,343.1,3.5,7.8,333.5,0.17,2.9,13.2,"16:12:32",1
"19/04/11","16:30",0.0,11.2,54.0,1007.1,346.1,4.4,8.7,337.0,0.14,2.3,13.2,"16:20:24",1
"19/04/11","16:40",0.0,11.1,57.1,1006.9,342.8,4.4,9.1,323.7,0.14,3.0,13.4,"16:34:56",1
"19/04/11","16:50",0.0,10.9,57.1,1007.1,334.5,4.2,10.0,329.7,0.11,2.8,13.3,"16:49:52",1
"19/04/11","17:00",0.0,11.4,56.3,1007.1,342.9,3.0,7.5,344.1,0.09,3.1,13.1,"16:53:04",1
"19/04/11","17:10",0.0,11.2,57.0,1006.9,343.6,2.7,7.3,336.0,0.10,3.0,13.1,"17:04:32",1
"19/04/11","17:20",0.0,11.1,57.3,1007.1,342.2,3.0,5.7,332.2,0.08,3.0,13.0,"17:19:04",1
"19/04/11","17:30",0.0,10.9,58.1,1007.1,331.4,3.4,7.1,345.1,0.08,3.0,12.9,"17:29:36",1
"19/04/11","17:40",0.0,10.7,58.1,1007.8,337.0,2.8,6.0,344.0,0.05,2.8,12.9,"17:30:16",1
"19/04/11","17:50",0.0,10.6,56.6,1007.6,353.2,2.6,5.6,336.2,0.04,2.4,12.7,"17:47:04",1
"19/04/11","18:00",0.0,10.4,57.8,1007.8,350.7,3.0,6.6,338.9,0.03,2.5,12.8,"17:59:20",1
"19/04/11","18:10",0.0,10.1,58.0,1007.6,339.1,2.8,4.8,346.5,0.01,2.3,12.6,"18:01:52",1
"19/04/11","18:20",0.0,10.0,58.4,1008.1,335.1,2.7,5.5,343.2,0.00,2.3,12.5,"18:10:32",1
"19/04/11","18:30",0.0,9.9,58.9,1007.8,336.3,2.7,5.9,329.1,0.00,2.3,12.6,"18:23:20",1
"19/04/11","18:40",0.0,9.7,60.2,1008.3,332.7,2.6,4.0,333.7,0.00,2.4,12.5,"18:37:20",1
"19/04/11","18:50",0.0,9.5,60.7,1008.3,330.2,2.7,4.3,332.2,0.00,2.3,12.4,"18:44:32",1
"19/04/11","19:00",0.0,9.3,61.3,1008.1,320.0,2.3,3.6,341.1,0.00,2.3,12.6,"18:54:08",1
"19/04/11","19:10",0.0,9.2,62.2,1008.1,329.2,2.2,3.9,328.9,0.00,2.4,12.2,"19:04:40",1
"19/04/11","19:20",0.0,9.0,63.6,1008.1,325.1,2.1,2.8,314.5,0.00,2.5,12.2,"19:14:08",1
"19/04/11","19:30",0.0,8.9,65.5,1008.3,328.2,1.8,3.3,318.4,0.00,2.8,11.9,"19:22:48",1
"19/04/11","19:40",0.0,8.6,67.9,1008.1,322.6,2.1,2.8,324.3,0.00,3.1,12.1,"19:31:52",1
"19/04/11","19:50",0.0,8.3,70.6,1008.3,326.0,2.0,2.5,316.8,0.00,3.3,12.2,"19:40:08",1
"19/04/11","20:00",0.0,8.2,72.0,1008.8,323.7,2.0,3.1,326.6,0.00,3.5,11.9,"19:53:12",1
"19/04/11","20:10",0.0,7.9,73.6,1008.6,309.9,1.5,2.2,315.6,0.00,3.5,11.9,"20:00:08",1
"19/04/11","20:20",0.0,7.8,74.2,1008.8,325.7,2.1,2.7,326.0,0.00,3.5,11.8,"20:13:12",1
"19/04/11","20:30",0.0,7.6,75.5,1008.8,303.2,2.0,2.6,310.1,0.00,3.6,11.8,"20:29:12",1
"19/04/11","20:40",0.0,7.5,76.7,1009.3,312.0,2.6,3.6,322.2,0.00,3.7,12.0,"20:31:20",1
"19/04/11","20:50",0.0,7.5,77.4,1008.8,318.4,3.1,4.2,325.7,0.00,3.8,11.7,"20:45:12",1
"19/04/11","21:00",0.0,7.5,78.2,1009.5,327.9,3.4,4.8,326.3,0.00,4.0,11.5,"20:59:36",1
"19/04/11","21:10",0.0,7.3,79.3,1009.0,329.3,3.6,5.4,334.6,0.00,4.0,11.7,"21:01:20",1
"19/04/11","21:20",0.0,7.2,80.0,1009.3,323.2,2.8,4.1,335.0,0.00,4.0,11.4,"21:14:56",1
"19/04/11","21:30",0.0,7.2,80.4,1009.3,319.6,3.2,4.4,321.0,0.00,4.1,11.3,"21:22:56",1
"19/04/11","21:40",0.0,7.0,80.5,1009.7,303.2,2.3,3.6,323.4,0.00,3.9,11.6,"21:30:24",1
"19/04/11","21:50",0.0,7.1,80.7,1009.5,315.7,3.5,4.8,328.0,0.00,4.1,11.1,"21:48:08",1
"19/04/11","22:00",0.0,7.1,80.2,1009.7,325.8,3.6,5.0,332.2,0.00,4.0,11.4,"21:57:28",1
"19/04/11","22:10",0.0,7.0,80.5,1010.0,328.9,4.1,5.8,339.8,0.00,3.9,11.3,"22:01:44",1
"19/04/11","22:20",0.0,6.9,80.7,1010.0,328.9,3.5,5.2,327.9,0.00,3.9,11.3,"22:14:08",1
"19/04/11","22:30",0.0,6.8,81.0,1009.7,300.3,2.3,4.5,306.7,0.00,3.8,11.0,"22:20:56",1
"19/04/11","22:40",0.0,6.7,81.7,1010.0,310.3,2.0,3.6,329.0,0.00,3.8,11.2,"22:39:20",1
"19/04/11","22:50",0.0,6.6,82.0,1009.5,311.9,2.5,3.6,318.3,0.00,3.8,11.2,"22:47:52",1
"19/04/11","23:00",0.0,6.5,82.5,1009.3,306.3,2.2,3.6,330.8,0.00,3.8,11.1,"22:51:04",1
"19/04/11","23:10",0.0,6.5,82.6,1009.3,314.9,2.7,3.6,330.7,0.00,3.8,11.0,"23:08:48",1
"19/04/11","23:20",0.0,6.5,82.8,1009.5,324.9,3.5,4.5,335.3,0.00,3.8,11.1,"23:14:00",1
"19/04/11","23:30",0.0,6.4,83.3,1009.3,321.8,2.3,3.6,325.9,0.00,3.8,10.9,"23:22:24",1
"19/04/11","23:40",0.0,6.5,83.4,1009.3,334.6,0.7,1.7,307.1,0.00,3.9,11.0,"23:30:08",1
"19/04/11","23:50",0.0,6.3,83.3,1009.3,307.2,2.0,3.1,312.6,0.00,3.7,11.0,"23:44:48",1
"19/04/11","24:00",0.0,6.2,83.8,1009.3,291.3,1.0,2.0,324.1,0.00,3.7,11.0,"23:51:36",1
